sat.trackr.live / text

‹ back to catalog

KINEIS-2B

NORAD 62934 · 2025-028G

PAYLOAD ACTIVE UNKNOWN

§ Identity

Operator
Country
FR
Launch date
2025-02-08
Launch site
RLLB
Launch vehicle
Mass (kg)
RCS (m²)

External: N2YO · Heavens-Above · Gunter

§ Orbital elements

Epoch: 2026-09-22T22:14:01.722912Z

Period
97.72 min
Inclination
97.9574°
Eccentricity
0.0003483
Mean motion
14.73582513 rev/d
Perigee alt
647.2 km
Apogee alt
652.1 km
Semi-major
7,027.8 km
B*
1.1926e-4
RAAN
316.9790°
Arg perigee
175.5994°
Mean anomaly
184.5245°
Rev number
8,705

§ Raw data

KINEIS-2B1 62934U 25028G   26265.92640883  .00000727  00000+0  11926-3 0  99992 62934  97.9574 316.9790 0003483 175.5994 184.5245 14.73582513 87058

JSON: /api/v1/satellites/62934 · /tle

For live sub-satellite position, see the globe view (requires WebGL).

§ Visibility from observer

Set your observer location to see the next 7 days of passes ≥ 10°. The values pass through the URL so the page stays shareable.

No JS? Fill the form by hand. The geolocation button needs JavaScript.

§ Radio — SatNOGS DB

ModeDescriptionDownlinkUplink
BPSK S-band telemetry 2.266 GHz
FM S-band telemetry 2.261 GHz
FM Telemetry 400.646 MHz

3 transmitters · refreshed weekly from db.satnogs.org